SCP
0 0 0 0 0 0 0 0 0 0 0 0 0 0 0 0 0 0 0 0 0 0
0 0 0 0 0 0 0 0 0 0 0 0 0 0 0 0 0 0 0 0 0 0
0 0 0 0 0 0 0 0 0 0 0 0 0 0 0 0 0 0 0 0 0 0
0 0 0 0 0 0 0 0 0 0 0 0 0 0 0 0 0 0 0 0 0 0
0 0 0 0 0 0 0 0 0 0 0 0 0 0 -0 0 0 0 0 0 0 0
-0 -0 0 0 0 0 0 0 0 0 0 0 0 0 0 0 0 0 0 0 0 0
0 0 0 0 0 0 0 -0 -0 0 0 0 0 0 0 0 0 0 0 0 0 0
0 -0 -0 -0 -0 -0 -0 -0 -0 -0 -0 -0 -0 -0 -0 -0 -0 0 0 0 0 0
0 0 0 0 0 0 0 0 -0 -0 -0 -0 -0 -0 -0 0 0 0 0 0 0 0
0 0 0 0 0 0 0 0 0 0 0 0 0 0 0 0 0 0 0 0 0 0
0 0 0 0 0 0 0 0 0 0 0 0 0 0 0 0 0 0 0 0 0 0
0 0 0 0 0 0 0 0 0 0 0 0 0 0 0 0 0 0 0 0 0 0
0 0 0 0 0 0 0 0 0 0 0 0 0 0 0 0 0 0 0 0 0 0
0 0 0 0 0 0 0 0 0 0 0 0 0 0 0 0 0 0 0 0 0 0
Wind_Speed_500mb
23 26 30 30 29 28 28 31 31 32 32 34 36 35 33 35 39 44 47 53 58 65
25 26 28 30 35 38 36 32 29 28 33 39 39 40 40 39 39 42 46 50 56 60
26 27 29 33 36 41 45 46 44 44 46 48 46 45 46 47 46 45 48 50 52 53
23 30 31 35 39 43 48 51 54 55 55 57 58 57 54 52 52 54 55 55 56 59
25 31 36 41 44 46 50 51 56 58 61 67 69 71 71 73 67 65 65 62 66 68
34 40 45 47 51 53 55 57 61 68 71 74 75 80 81 85 88 87 84 80 76 77
45 50 55 59 61 63 66 72 76 79 83 86 91 95 95 95 95 95 96 97 95 94
54 58 63 66 69 76 83 91 97 102 104 105 105 104 103 98 94 98 104 105 105 104
58 63 65 70 78 85 92 99 103 106 108 111 110 93 67 68 76 86 96 110 117 117
61 62 67 76 86 94 98 102 104 105 107 111 112 106 78 70 74 84 92 101 106 110
57 65 75 85 89 92 96 100 104 108 109 112 113 105 93 79 81 94 104 106 106 102
63 73 80 84 88 90 95 99 103 105 106 102 102 90 80 70 77 87 93 90 91 89
69 75 81 83 86 90 95 100 100 101 94 88 86 76 68 59 65 75 80 80 81 77
68 74 76 81 85 89 93 94 95 92 85 80 75 69 61 55 61 71 81 85 85 80
Wind_Direction_500mb
22 22 25 21 13 5 6 3 355 353 348 339 335 333 328 311 302 292 281 274 270 270
14 12 10 4 1 355 349 346 348 344 337 330 328 327 326 329 325 315 304 291 280 274
4 359 357 351 346 342 339 337 336 332 330 329 325 319 316 314 315 316 315 311 302 291
341 338 343 336 335 332 329 330 330 329 326 321 318 318 318 313 310 306 304 306 305 303
336 334 332 330 330 325 322 324 322 318 316 314 313 312 312 311 309 307 304 300 299 297
330 328 326 324 325 322 321 318 316 314 312 309 306 306 304 303 303 302 299 297 294 292
318 319 321 322 321 320 319 317 313 311 308 306 304 302 300 298 296 295 294 293 290 288
313 314 318 319 319 319 318 316 314 312 310 308 305 303 302 303 301 296 292 288 286 285
304 308 312 313 314 312 310 308 307 306 306 305 303 303 297 295 292 289 287 287 285 283
300 304 307 308 308 308 308 307 305 304 303 301 299 300 297 292 284 279 276 277 279 281
297 302 306 307 309 308 308 308 307 306 304 301 299 300 298 296 286 278 274 271 271 272
303 308 310 311 311 312 311 310 309 307 306 305 304 305 304 299 291 288 286 285 282 278
310 311 313 314 315 315 314 313 311 310 310 309 308 308 307 299 294 293 295 295 292 289
312 313 313 316 318 317 315 316 315 313 311 311 313 316 315 300 295 293 295 297 296 292
Wind_Speed_850mb
23 26 30 30 29 28 28 31 31 32 32 34 36 35 33 35 39 44 47 53 58 65
25 26 28 30 35 38 36 32 29 28 33 39 39 40 40 39 39 42 46 50 56 60
26 27 29 33 36 41 45 46 44 44 46 48 46 45 46 47 46 45 48 50 52 53
23 30 31 35 39 43 48 51 54 55 55 57 58 57 54 52 52 54 55 55 56 59
25 31 36 41 44 46 50 51 56 58 61 67 69 71 71 73 67 65 65 62 66 68
34 40 45 47 51 53 55 57 61 68 71 74 75 80 81 85 88 87 84 80 76 77
45 50 55 59 61 63 66 72 76 79 83 86 91 95 95 95 95 95 96 97 95 94
54 58 63 66 69 76 83 91 97 102 104 105 105 104 103 98 94 98 104 105 105 104
58 63 65 70 78 85 92 99 103 106 108 111 110 93 67 68 76 86 96 110 117 117
61 62 67 76 86 94 98 102 104 105 107 111 112 106 78 70 74 84 92 101 106 110
57 65 75 85 89 92 96 100 104 108 109 112 113 105 93 79 81 94 104 106 106 102
63 73 80 84 88 90 95 99 103 105 106 102 102 90 80 70 77 87 93 90 91 89
69 75 81 83 86 90 95 100 100 101 94 88 86 76 68 59 65 75 80 80 81 77
68 74 76 81 85 89 93 94 95 92 85 80 75 69 61 55 61 71 81 85 85 80
Wind_Direction_850mb
22 22 25 21 13 5 6 3 355 353 348 339 335 333 328 311 302 292 281 274 270 270
14 12 10 4 1 355 349 346 348 344 337 330 328 327 326 329 325 315 304 291 280 274
4 359 357 351 346 342 339 337 336 332 330 329 325 319 316 314 315 316 315 311 302 291
341 338 343 336 335 332 329 330 330 329 326 321 318 318 318 313 310 306 304 306 305 303
336 334 332 330 330 325 322 324 322 318 316 314 313 312 312 311 309 307 304 300 299 297
330 328 326 324 325 322 321 318 316 314 312 309 306 306 304 303 303 302 299 297 294 292
318 319 321 322 321 320 319 317 313 311 308 306 304 302 300 298 296 295 294 293 290 288
313 314 318 319 319 319 318 316 314 312 310 308 305 303 302 303 301 296 292 288 286 285
304 308 312 313 314 312 310 308 307 306 306 305 303 303 297 295 292 289 287 287 285 283
300 304 307 308 308 308 308 307 305 304 303 301 299 300 297 292 284 279 276 277 279 281
297 302 306 307 309 308 308 308 307 306 304 301 299 300 298 296 286 278 274 271 271 272
303 308 310 311 311 312 311 310 309 307 306 305 304 305 304 299 291 288 286 285 282 278
310 311 313 314 315 315 314 313 311 310 310 309 308 308 307 299 294 293 295 295 292 289
312 313 313 316 318 317 315 316 315 313 311 311 313 316 315 300 295 293 295 297 296 292